{"data":{"norad_id":55282,"epoch":"2026-05-25T03:40:59.299104Z","epoch_age_seconds":57745,"freshness":"FRESH","line1":"1 55282U 23010P   26145.15346411 -.00000237  00000+0 -12029-4 0  9992","line2":"2 55282  69.9993 211.4894 0003766 270.8772  89.1955 14.98331585184235","mean_motion":14.98331585,"eccentricity":0.0003766,"inclination_deg":69.9993,"raan_deg":211.4894,"arg_perigee_deg":270.8772,"mean_anomaly_deg":89.1955,"bstar":-1.2029e-5,"rev_number":18423,"period_min":96.10689745955,"perigee_km":569.43354867015,"apogee_km":574.66843026382,"semimajor_km":6950.187989467,"source":"CELESTRAK","updated_at":"2026-05-25T13:38:17.733029Z"}}